Temperature
7 5 5 5 6 7 7 7 6 7 7 6 5 5 5 5 5 5 5 6 6 7 7 7 6 6 6 6 6 6 6 6 6 6 6 6 6 6 6 6 6 6 6 6
5 5 6 6 6 6 6 6 6 6 6 5 4 4 5 4 4 5 5 5 6 6 6 6 6 6 6 6 5 5 5 5 5 5 5 5 5 5 5 5 5 5 5 5
5 5 6 6 6 6 6 5 5 5 5 4 4 4 4 4 4 5 5 5 6 6 5 5 5 5 5 5 5 5 5 5 5 4 4 4 4 4 5 5 5 5 5 5
4 5 5 5 5 5 5 5 5 5 4 3 4 4 4 3 3 4 4 4 5 5 5 5 5 5 5 5 4 4 4 4 4 4 4 4 4 4 4 4 4 4 4 4
4 4 4 4 4 5 4 4 4 4 3 2 3 3 3 3 3 3 3 3 4 4 4 4 4 4 4 4 4 4 4 3 3 3 3 3 4 4 4 4 4 4 4 4
3 3 4 4 4 4 4 4 3 2 2 3 3 2 3 2 3 3 2 3 3 3 4 4 4 4 4 4 3 3 3 3 3 3 3 3 3 3 3 3 3 3 3 3
3 3 3 3 3 3 3 3 3 3 2 3 2 2 2 2 2 2 2 2 3 3 3 3 3 3 3 3 3 3 3 3 2 2 2 2 2 2 3 3 2 2 3 3
3 3 2 2 3 3 2 3 3 3 3 2 2 2 2 1 1 2 2 2 2 2 3 3 3 3 3 3 3 2 2 2 2 2 2 2 2 2 2 2 2 2 2 2
2 2 2 2 2 2 2 1 2 1 1 1 1 1 1 1 1 0 1 1 1 2 2 2 2 2 2 2 2 2 2 2 1 1 1 1 1 1 1 1 1 1 1 1
1 1 1 1 2 2 1 1 0 1 2 2 1 1 1 1 0 -0 -1 0 1 1 1 1 1 1 1 1 1 1 1 1 1 1 1 0 0 0 0 0 1 1 1 1
0 0 0 0 -0 0 0 0 0 -0 0 1 1 1 0 0 -0 -1 -1 -0 0 0 0 0 1 1 1 0 0 0 0 0 0 0 0 -0 -0 -0 -0 -0 -0 0 0 0
-1 -1 -1 -1 -1 -1 -1 -1 -1 0 0 -1 -0 -0 -1 -2 -1 -1 -1 -1 -0 -0 -0 -0 -0 -0 -0 -0 -0 -0 -0 -0 -1 -1 -1 -1 -1 -1 -1 -1 -1 -1 -0 -0
-1 -2 -1 -0 -0 -2 -2 -2 -2 -1 -1 -2 -1 -0 -1 -2 -2 -2 -2 -1 -1 -1 -1 -1 -1 -1 -1 -1 -1 -1 -1 -1 -1 -1 -1 -1 -1 -1 -1 -1 -1 -1 -1 -1
-1 -2 -1 0 -0 -2 -3 -3 -3 -2 -2 -2 -2 -1 -1 -2 -2 -2 -2 -2 -2 -2 -2 -2 -2 -1 -2 -2 -1 -1 -1 -1 -2 -2 -2 -2 -2 -2 -2 -2 -2 -2 -2 -2
-2 -3 -3 -3 -2 -2 -2 -3 -3 -3 -2 -2 -1 -2 -2 -2 -3 -2 -2 -2 -2 -2 -2 -2 -2 -2 -2 -2 -2 -2 -2 -2 -2 -2 -2 -2 -2 -2 -3 -3 -3 -3 -3 -3
-4 -3 -3 -3 -2 -3 -2 -3 -3 -3 -3 -3 -3 -3 -3 -3 -3 -3 -3 -3 -3 -3 -3 -3 -3 -3 -3 -3 -3 -3 -3 -3 -3 -3 -3 -3 -3 -3 -3 -3 -3 -4 -3 -3
-4 -4 -3 -3 -3 -3 -3 -3 -4 -4 -4 -4 -3 -3 -4 -4 -4 -4 -3 -3 -3 -3 -3 -3 -3 -3 -3 -3 -4 -4 -4 -4 -3 -3 -3 -4 -4 -4 -4 -4 -4 -4 -4 -4
-4 -4 -4 -4 -4 -2 -2 -4 -4 -4 -5 -5 -5 -5 -4 -4 -4 -4 -3 -4 -4 -4 -4 -4 -4 -4 -4 -4 -4 -4 -4 -4 -4 -4 -4 -4 -5 -5 -5 -5 -5 -5 -5 -5
-5 -4 -4 -4 -4 -3 -3 -4 -5 -4 -4 -5 -5 -5 -5 -5 -5 -4 -4 -4 -4 -4 -4 -4 -4 -4 -4 -4 -5 -5 -5 -5 -5 -5 -5 -5 -5 -5 -5 -5 -5 -5 -5 -5
-6 -5 -5 -5 -4 -3 -3 -4 -5 -4 -4 -5 -6 -6 -6 -6 -6 -5 -4 -5 -4 -4 -4 -4 -4 -4 -5 -5 -5 -5 -5 -5 -5 -5 -5 -6 -6 -6 -6 -6 -6 -6 -6 -6
-6 -6 -6 -5 -5 -4 -5 -5 -5 -4 -4 -5 -5 -5 -6 -6 -6 -5 -5 -5 -5 -5 -5 -5 -5 -5 -5 -5 -5 -6 -6 -6 -6 -6 -6 -6 -6 -6 -7 -7 -7 -7 -7 -7
-6 -6 -6 -6 -5 -4 -5 -6 -5 -5 -5 -5 -5 -5 -6 -6 -6 -6 -6 -6 -5 -5 -5 -5 -5 -5 -6 -6 -6 -6 -6 -6 -6 -7 -7 -7 -7 -7 -7 -7 -7 -8 -8 -8
-7 -6 -6 -6 -5 -5 -5 -5 -5 -5 -5 -6 -6 -6 -6 -6 -6 -6 -6 -6 -6 -6 -6 -6 -6 -6 -6 -6 -6 -7 -7 -7 -7 -7 -7 -7 -7 -8 -8 -8 -8 -8 -8 -8
-7 -8 -7 -7 -7 -6 -5 -5 -5 -5 -5 -6 -6 -6 -6 -7 -7 -7 -7 -7 -7 -6 -7 -7 -7 -7 -7 -7 -7 -7 -7 -7 -8 -8 -8 -8 -8 -8 -8 -8 -9 -9 -9 -9
-7 -8 -8 -8 -8 -7 -6 -5 -6 -6 -6 -6 -6 -7 -7 -7 -7 -8 -8 -7 -7 -7 -7 -7 -7 -7 -7 -7 -7 -7 -8 -8 -8 -8 -8 -9 -9 -9 -9 -9 -9 -9 -9 -9
-9 -9 -8 -7 -7 -8 -7 -6 -6 -7 -7 -7 -7 -7 -7 -8 -8 -8 -8 -8 -8 -8 -8 -8 -8 -8 -8 -8 -8 -8 -8 -8 -9 -9 -9 -9 -9 -9 -9 -10 -10 -10 -10 -10
Wind_Speed
1 3 4 7 8 5 4 4 5 5 2 2 7 9 9 5 5 7 6 6 6 7 5 4 5 5 4 4 4 4 4 3 3 3 2 2 2 1 0 1 2 2 2 2
3 3 5 2 3 3 3 4 5 4 2 3 5 9 8 6 6 7 7 7 7 4 2 3 4 4 5 5 5 4 4 4 4 3 3 2 2 1 1 1 1 2 2 2
6 3 2 2 1 3 5 6 6 4 5 2 3 7 5 4 3 3 4 6 6 7 6 5 4 5 5 5 6 5 4 4 3 3 2 2 1 1 0 1 1 1 2 3
2 2 0 2 2 3 7 4 4 4 2 4 1 5 5 4 3 4 5 4 5 5 5 5 5 5 5 6 5 5 4 4 3 4 4 5 3 3 2 2 2 2 2 2
2 1 1 3 4 3 4 2 3 3 3 3 2 3 7 2 4 6 5 4 3 4 5 5 5 6 5 5 4 4 4 4 3 4 5 5 4 3 1 1 2 2 2 2
2 1 1 2 2 2 1 1 2 2 2 5 7 6 7 3 5 4 3 3 3 3 3 3 3 3 3 3 3 3 4 4 4 4 4 4 5 4 3 3 3 3 2 2
3 2 2 1 1 2 2 3 2 2 2 6 3 5 7 4 3 4 4 3 3 3 3 2 2 2 2 3 3 3 4 4 4 4 4 5 5 5 6 5 5 4 3 3
1 4 2 1 2 3 3 5 5 5 5 4 1 6 5 2 2 2 2 2 1 1 2 2 3 3 3 3 3 4 4 4 4 4 4 4 4 4 4 4 4 4 4 4
3 4 2 1 1 2 2 3 3 3 1 3 5 4 5 2 3 3 3 2 1 2 2 2 1 2 2 3 3 4 4 3 4 4 4 4 4 4 4 4 4 4 3 3
3 3 4 3 2 1 1 3 3 3 3 5 5 4 4 4 4 4 3 3 3 2 2 1 1 1 1 1 1 1 2 3 3 3 3 3 3 4 4 4 4 4 4 3
2 2 3 2 2 3 2 2 2 3 3 4 4 5 3 4 3 3 4 4 3 3 2 2 2 1 1 1 0 0 1 1 2 2 2 3 3 3 3 4 5 4 4 4
1 2 2 5 2 1 2 3 4 4 4 4 3 6 3 2 2 2 4 4 3 3 3 2 2 2 2 1 1 1 1 1 2 2 2 2 3 3 3 4 4 3 4 4
3 3 2 5 2 3 1 1 2 2 1 3 4 6 3 4 4 3 3 4 4 3 3 3 2 2 2 2 2 2 2 2 2 1 1 2 2 3 4 4 4 3 3 3
3 3 5 6 5 3 3 3 3 3 4 5 7 9 8 7 6 6 4 4 4 3 3 3 3 3 3 2 2 2 3 2 2 2 1 2 3 3 4 4 3 3 3 3
3 3 4 5 4 3 5 6 5 7 7 8 8 9 11 9 6 5 4 4 4 4 4 4 4 3 3 3 3 3 3 3 2 2 2 3 3 3 3 3 3 2 3 3
1 2 1 3 3 3 6 7 7 7 7 8 9 11 10 8 5 4 4 5 5 5 5 5 4 4 4 3 3 3 3 3 2 2 3 3 3 2 2 2 2 2 2 2
2 3 2 4 3 3 6 5 6 4 4 5 8 9 7 6 7 5 5 5 5 6 5 5 5 4 4 4 3 3 3 3 2 2 3 3 3 2 2 2 1 1 1 1
4 3 2 1 2 5 6 2 4 5 4 5 5 6 6 6 6 5 4 4 5 6 6 6 5 4 4 3 2 2 2 2 2 2 3 3 2 2 2 2 1 2 1 2
4 5 3 2 3 7 5 2 3 4 5 3 5 7 7 5 4 3 3 3 5 7 6 5 4 4 2 2 1 1 1 2 2 2 2 2 2 2 2 2 2 2 2 2
2 3 3 3 3 5 5 3 2 2 4 3 2 4 4 4 3 4 5 6 7 7 5 5 4 2 1 2 1 1 1 2 3 3 3 2 2 2 2 3 3 2 2 2
1 1 4 5 5 7 5 2 2 3 5 3 2 3 3 3 5 6 7 7 6 6 6 5 3 2 2 2 1 1 2 3 3 3 3 3 2 2 2 2 2 2 2 2
5 4 4 4 4 7 1 3 3 4 3 3 4 4 4 5 6 6 6 6 7 6 6 4 3 3 3 1 1 2 3 3 3 2 3 3 3 2 2 2 2 2 2 2
5 6 4 6 6 3 1 3 3 2 3 4 5 5 5 5 6 7 6 6 6 6 5 4 3 3 3 2 1 2 3 3 2 2 2 3 3 3 2 2 2 2 2 2
3 1 2 4 5 4 4 3 3 3 4 5 5 5 5 6 7 7 7 6 6 5 5 4 3 3 4 3 2 2 2 2 2 2 2 2 2 3 2 2 2 2 2 2
3 2 2 5 6 5 4 4 4 5 4 5 5 4 5 5 7 6 6 6 6 5 5 4 3 4 4 3 3 2 2 1 1 2 2 3 2 2 3 3 2 3 3 4
2 3 3 5 5 4 6 5 4 4 5 5 5 6 5 5 6 6 6 5 5 5 5 4 4 4 4 3 3 3 2 1 1 2 2 2 2 2 2 3 4 5 5 6
Wind_Direction
88 94 205 215 210 207 183 202 242 250 224 202 232 254 263 245 231 236 235 226 223 226 224 192 186 183 172 171 172 170 166 162 150 159 163 172 189 187 174 143 156 153 144 144
62 245 243 231 215 214 220 241 259 284 297 227 252 265 260 238 221 220 225 223 221 222 219 199 187 181 182 184 186 184 183 178 178 182 183 189 178 205 212 188 177 177 158 162
184 235 240 185 198 219 238 227 241 262 322 310 301 294 259 261 225 230 228 223 215 204 202 200 196 197 192 191 192 195 195 188 184 160 131 119 98 64 136 217 216 234 186 177
218 281 201 153 214 207 244 238 245 250 274 274 200 278 275 254 268 248 246 239 227 212 200 198 196 199 205 208 199 192 185 184 183 165 161 167 180 198 222 215 226 241 200 190
252 249 172 211 232 209 230 250 233 234 212 274 249 227 282 273 255 256 250 243 233 217 202 201 202 205 209 206 198 193 177 179 180 179 177 185 193 202 200 197 206 222 233 214
239 276 223 233 267 228 239 20 45 64 112 259 230 201 273 240 233 260 260 246 238 228 212 204 201 196 206 199 193 188 179 186 184 184 182 189 199 194 191 204 213 223 234 234
319 307 320 334 345 349 71 101 16 331 274 248 206 201 252 261 245 230 240 246 239 224 204 200 196 201 211 204 198 194 188 194 193 191 196 200 206 199 201 206 212 216 225 235
273 287 273 285 205 213 208 167 182 219 239 276 257 227 251 269 295 288 274 261 254 243 220 213 218 212 215 213 205 199 200 204 201 200 208 210 208 212 217 215 215 221 227 230
201 259 319 353 329 168 167 209 192 165 243 263 260 275 303 333 346 349 344 354 311 280 256 237 233 223 222 217 213 209 207 213 214 211 210 214 213 219 227 220 216 222 233 235
168 254 290 314 5 357 167 153 123 164 211 251 273 260 251 280 297 313 319 295 286 304 310 316 310 276 249 231 228 215 212 223 224 214 216 232 229 226 226 220 220 221 230 226
120 181 299 332 204 215 154 163 173 173 186 198 253 264 240 228 250 270 286 299 302 304 308 312 309 310 338 16 22 294 251 245 243 236 232 232 240 238 232 231 228 225 227 221
137 132 256 263 260 263 201 199 173 188 233 206 220 265 300 284 307 301 302 312 316 313 318 323 330 358 5 0 347 322 304 281 271 261 253 247 246 238 235 244 241 231 227 228
129 111 358 333 333 353 306 272 213 176 173 195 214 260 316 350 338 327 315 311 312 318 326 333 340 337 330 330 326 318 312 303 306 298 281 274 263 243 237 243 244 236 230 231
112 159 194 221 239 228 257 266 223 180 215 236 235 258 290 303 305 311 309 300 296 298 305 313 313 310 310 311 309 311 314 318 318 311 292 277 268 259 250 245 240 235 231 230
110 212 230 250 260 230 242 252 224 213 220 232 253 255 272 279 282 287 289 299 299 300 304 298 294 295 301 305 307 310 313 322 322 320 305 283 279 276 265 252 245 240 239 242
99 197 214 272 252 264 276 268 239 238 241 244 264 273 275 284 290 294 291 295 294 290 293 295 294 291 289 286 291 300 308 313 319 314 303 306 308 303 283 264 248 243 246 252
182 171 194 261 287 321 278 245 214 220 223 214 243 263 289 307 308 300 293 296 292 296 291 288 286 276 275 273 274 275 289 308 320 320 317 316 316 310 303 303 311 278 267 271
177 172 188 246 14 251 250 191 194 209 240 233 253 279 288 285 291 289 289 284 300 307 301 290 284 284 282 278 283 284 303 315 317 312 316 321 325 327 326 329 319 303 287 263
193 179 180 180 235 270 288 244 179 205 267 261 259 283 305 314 322 314 329 323 303 303 297 292 285 279 281 282 279 284 310 319 316 308 308 315 318 317 322 316 307 303 291 285
79 140 172 182 213 244 262 275 264 143 278 280 256 283 310 351 331 295 322 325 316 316 313 312 311 313 299 287 269 270 291 304 300 300 301 307 304 298 297 296 300 299 291 285
109 176 206 213 230 260 268 288 97 164 265 303 280 278 292 267 253 280 308 314 316 320 319 321 323 317 293 282 262 268 280 279 288 304 317 317 310 300 290 290 294 293 295 299
183 185 206 192 221 257 252 116 178 235 303 301 294 291 285 279 284 293 304 313 323 325 324 325 323 316 310 295 254 265 275 285 301 316 319 314 313 308 306 304 300 295 287 293
200 198 200 202 222 262 182 207 237 267 285 289 289 290 287 287 291 299 304 310 315 316 317 318 310 309 313 305 266 261 281 293 301 308 305 305 315 317 305 291 291 298 286 277
260 223 202 257 268 279 274 260 289 288 273 281 281 284 285 282 290 296 299 306 311 312 312 316 311 306 310 310 298 270 281 291 287 289 297 304 310 311 313 304 291 283 275 273
246 192 239 264 285 308 292 285 300 307 305 307 307 299 290 287 290 291 297 301 304 308 310 310 301 294 299 307 303 303 297 284 294 298 302 305 302 297 302 304 292 281 262 260
234 207 211 247 260 253 275 291 303 304 304 304 308 313 308 290 286 291 294 295 299 302 305 308 306 303 300 304 304 306 298 271 267 291 301 300 299 298 301 301 309 307 302 301
Height
1493 1498 1500 1497 1497 1496 1498 1500 1500 1497 1495 1498 1499 1496 1492 1491 1491 1490 1490 1490 1491 1491 1493 1494 1495 1496 1497 1497 1498 1499 1500 1501 1503 1504 1505 1506 1507 1509 1510 1511 1512 1513 1514 1515
1497 1499 1496 1495 1495 1496 1497 1500 1500 1498 1496 1498 1498 1495 1489 1487 1486 1486 1486 1486 1487 1488 1489 1490 1491 1492 1493 1494 1495 1496 1497 1498 1499 1500 1502 1503 1505 1506 1507 1508 1509 1510 1511 1512
1495 1496 1494 1495 1496 1496 1497 1499 1499 1500 1498 1498 1499 1494 1488 1484 1483 1484 1483 1483 1484 1485 1486 1487 1488 1489 1490 1490 1491 1492 1493 1494 1496 1497 1499 1500 1501 1502 1503 1504 1505 1506 1508 1508
1495 1495 1494 1494 1496 1495 1496 1496 1497 1499 1502 1504 1501 1501 1488 1484 1483 1481 1481 1480 1481 1482 1483 1484 1485 1486 1487 1487 1489 1489 1490 1491 1492 1494 1494 1495 1496 1496 1498 1500 1501 1503 1504 1505
1496 1495 1494 1494 1494 1494 1495 1495 1496 1498 1502 1506 1503 1505 1491 1485 1484 1480 1479 1478 1478 1479 1480 1481 1482 1483 1484 1485 1486 1487 1487 1488 1489 1490 1491 1492 1492 1494 1495 1496 1498 1499 1500 1501
1495 1494 1494 1494 1493 1494 1494 1496 1498 1501 1505 1505 1498 1503 1492 1486 1481 1479 1477 1477 1477 1477 1478 1479 1480 1481 1482 1483 1483 1484 1484 1485 1486 1486 1487 1488 1489 1490 1491 1492 1493 1494 1496 1497
1496 1495 1494 1494 1494 1494 1495 1500 1505 1504 1507 1499 1495 1498 1490 1481 1479 1477 1476 1475 1475 1476 1476 1476 1477 1478 1478 1479 1480 1480 1481 1481 1482 1483 1484 1484 1485 1486 1487 1488 1489 1490 1491 1492
1499 1498 1495 1494 1494 1495 1495 1497 1501 1501 1500 1498 1497 1494 1485 1479 1477 1476 1475 1474 1474 1474 1474 1474 1475 1476 1476 1477 1477 1477 1478 1478 1478 1479 1479 1480 1481 1482 1483 1484 1485 1485 1486 1487
1500 1498 1495 1494 1494 1494 1496 1498 1497 1503 1506 1506 1497 1493 1484 1478 1477 1475 1474 1473 1473 1473 1473 1473 1473 1474 1474 1474 1474 1475 1475 1475 1475 1475 1476 1476 1477 1478 1478 1479 1480 1481 1482 1483
1498 1501 1498 1496 1495 1494 1495 1497 1502 1503 1501 1497 1495 1493 1487 1480 1478 1476 1475 1473 1472 1473 1472 1472 1472 1472 1472 1472 1472 1472 1472 1472 1472 1472 1471 1472 1472 1473 1474 1474 1475 1476 1477 1478
1498 1502 1501 1499 1499 1497 1498 1498 1499 1501 1501 1499 1497 1491 1480 1478 1477 1476 1474 1473 1472 1471 1470 1470 1470 1470 1470 1470 1470 1469 1469 1469 1468 1468 1468 1468 1468 1469 1469 1469 1470 1471 1472 1473
1499 1502 1504 1500 1498 1497 1497 1497 1498 1499 1499 1501 1499 1493 1479 1477 1476 1475 1474 1473 1472 1471 1470 1469 1468 1468 1467 1467 1466 1466 1466 1465 1465 1464 1464 1464 1464 1464 1464 1464 1465 1466 1466 1468
1498 1503 1505 1500 1501 1501 1500 1499 1498 1498 1499 1501 1499 1490 1479 1477 1475 1475 1474 1473 1472 1471 1469 1468 1467 1466 1465 1464 1464 1463 1462 1462 1461 1461 1460 1459 1459 1459 1459 1459 1460 1460 1461 1462
1495 1502 1502 1499 1496 1498 1501 1499 1498 1498 1499 1498 1494 1486 1480 1478 1476 1474 1473 1472 1471 1469 1468 1466 1465 1464 1463 1462 1461 1460 1459 1459 1458 1457 1456 1455 1454 1454 1454 1454 1455 1455 1456 1457
1496 1501 1501 1498 1496 1497 1496 1495 1496 1495 1492 1491 1485 1484 1478 1475 1475 1473 1472 1470 1469 1468 1466 1464 1463 1462 1461 1460 1459 1458 1457 1456 1455 1453 1452 1451 1450 1450 1449 1449 1449 1450 1451 1451
1497 1500 1500 1499 1495 1495 1493 1491 1492 1491 1491 1489 1486 1482 1474 1473 1473 1471 1470 1468 1466 1465 1463 1462 1461 1459 1458 1457 1456 1455 1454 1453 1452 1450 1449 1448 1447 1446 1445 1445 1445 1445 1446 1446
1498 1499 1499 1497 1495 1494 1491 1487 1488 1488 1487 1486 1483 1479 1474 1473 1471 1469 1467 1466 1464 1463 1461 1459 1458 1456 1455 1454 1453 1452 1451 1450 1449 1447 1446 1445 1443 1442 1442 1441 1441 1441 1441 1441
1495 1497 1498 1499 1500 1495 1483 1481 1481 1482 1482 1481 1478 1475 1473 1472 1469 1467 1465 1464 1462 1461 1459 1457 1455 1453 1453 1452 1451 1450 1449 1448 1446 1445 1443 1442 1440 1439 1439 1438 1437 1437 1437 1437
1490 1493 1496 1499 1498 1490 1482 1480 1481 1482 1479 1477 1476 1474 1471 1469 1467 1465 1464 1462 1461 1458 1456 1454 1453 1451 1450 1449 1448 1447 1446 1445 1443 1442 1440 1439 1438 1437 1436 1435 1434 1434 1434 1433
1491 1492 1496 1498 1495 1488 1479 1477 1476 1479 1479 1474 1473 1472 1470 1468 1469 1465 1462 1460 1458 1456 1454 1451 1450 1449 1447 1446 1445 1444 1443 1442 1440 1439 1438 1437 1436 1434 1433 1432 1432 1431 1430 1430
1495 1496 1497 1496 1494 1485 1479 1476 1476 1481 1477 1472 1471 1470 1470 1468 1467 1463 1460 1458 1456 1453 1451 1449 1447 1446 1445 1444 1443 1441 1440 1439 1438 1437 1436 1434 1433 1432 1431 1430 1429 1428 1427 1426
1492 1495 1496 1495 1493 1485 1476 1476 1478 1476 1472 1471 1470 1468 1467 1465 1462 1459 1457 1455 1453 1451 1449 1447 1445 1443 1443 1442 1440 1438 1437 1437 1436 1434 1433 1432 1431 1430 1429 1428 1426 1425 1424 1423
1488 1486 1486 1485 1481 1475 1473 1473 1473 1472 1471 1469 1468 1466 1464 1461 1459 1457 1455 1453 1450 1448 1446 1444 1442 1441 1440 1439 1438 1436 1435 1434 1433 1431 1430 1429 1428 1427 1426 1425 1424 1423 1422 1421
1483 1482 1483 1481 1475 1473 1472 1471 1470 1470 1468 1467 1465 1463 1461 1459 1456 1454 1452 1450 1448 1446 1444 1442 1440 1438 1437 1436 1435 1434 1432 1431 1430 1429 1427 1426 1425 1424 1423 1422 1421 1420 1419 1418
1481 1481 1481 1479 1474 1471 1469 1469 1468 1467 1465 1464 1462 1461 1458 1456 1453 1451 1449 1447 1445 1443 1441 1439 1437 1435 1434 1433 1432 1431 1430 1428 1427 1426 1424 1423 1422 1421 1420 1419 1418 1417 1416 1415
1478 1479 1479 1475 1472 1471 1468 1467 1466 1465 1463 1461 1459 1456 1455 1453 1450 1448 1446 1444 1442 1440 1438 1436 1434 1433 1431 1430 1429 1428 1427 1425 1424 1422 1421 1420 1419 1418 1417 1416 1415 1414 1413 1412